This is the latest recevied weather packets stored in our database for station/object DC1MPP-9. If no packets are shown the sender has not sent any weather packets the latest 10 day(s).
| Time | Temp. | Humidity | Pressure | Rain* | Wind** | Luminosity | Snow |
|---|---|---|---|---|---|---|---|
| 1777968708 | 21.67° C | 58% | 951 hPa | - | - | - | - |
| 1777968467 | 21.67° C | 56% | 951 hPa | - | - | - | - |
| 1777968226 | 22.22° C | 54% | 951 hPa | - | - | - | - |
| 1777967985 | 22.22° C | 59% | 952 hPa | - | - | - | - |
| 1777967743 | 21.67° C | 58% | 952 hPa | - | - | - | - |
| 1777967502 | 21.67° C | 59% | 952 hPa | - | - | - | - |
| 1777967261 | 21.67° C | 63% | 952 hPa | - | - | - | - |
| 1777967020 | 21.67° C | 66% | 952 hPa | - | - | - | - |
| 1777966779 | 21.11° C | 65% | 952 hPa | - | - | - | - |
| 1777966538 | 21.11° C | 68% | 952 hPa | - | - | - | - |
| 1777966297 | 21.11° C | 66% | 952 hPa | - | - | - | - |
| 1777966056 | 20.56° C | 67% | 952 hPa | - | - | - | - |
| 1777965815 | 20.56° C | 64% | 952 hPa | - | - | - | - |
| 1777965574 | 20.56° C | 69% | 952 hPa | - | - | - | - |
| 1777965333 | 20° C | 72% | 952 hPa | - | - | - | - |
| 1777965092 | 19.44° C | 69% | 952 hPa | - | - | - | - |
| 1777964851 | 19.44° C | 71% | 952 hPa | - | - | - | - |
| 1777964610 | 18.89° C | 71% | 952 hPa | - | - | - | - |
| 1777964369 | 18.89° C | 69% | 952 hPa | - | - | - | - |
| 1777964128 | 18.89° C | 71% | 952 hPa | - | - | - | - |
| 1777963887 | 18.89° C | 72% | 952 hPa | - | - | - | - |
| 1777963646 | 19.44° C | 72% | 952 hPa | - | - | - | - |
| 1777963405 | 18.89° C | 75% | 952 hPa | - | - | - | - |
| 1777963164 | 18.89° C | 75% | 952 hPa | - | - | - | - |
| 1777962922 | 18.89° C | 74% | 952 hPa | - | - | - | - |
* Rain since midnight (hover to see other rain measurements)
** Current wind speed in m/s (hover to see current wind gust speed)